Time,TemperatureF,DewpointF,PressureIn,WindDirection,WindDirectionDegrees,WindSpeedMPH,WindSpeedGustMPH,Humidity,HourlyPrecipIn,Conditions,Clouds,dailyrainin,SoftwareType,DateUTC
2013-01-10 00:01:00,35.0,34.0,29.97,SSW,193,0.0,-999.0,96,-99.99,,,-99.99,,2013-01-10 08:01:00,
2013-01-10 00:11:00,35.0,34.0,29.97,SSW,193,0.0,-999.0,96,-99.99,,,-99.99,,2013-01-10 08:11:00,
2013-01-10 00:21:00,34.0,33.0,29.97,SSW,193,0.0,-999.0,96,-99.99,,,-99.99,,2013-01-10 08:21:00,
2013-01-10 00:32:00,34.0,33.0,29.97,SSW,193,0.0,-999.0,96,-99.99,,,-99.99,,2013-01-10 08:32:00,
2013-01-10 00:42:00,34.0,33.0,29.97,SSW,193,0.0,-999.0,96,-99.99,,,-99.99,,2013-01-10 08:42:00,
2013-01-10 00:52:00,33.0,32.0,29.98,SSW,193,0.0,-999.0,96,-99.99,,,-99.99,,2013-01-10 08:52:00,
2013-01-10 01:02:00,33.0,32.0,29.98,SSW,193,0.0,-999.0,96,-99.99,,,-99.99,,2013-01-10 09:02:00,
2013-01-10 01:12:00,33.0,32.0,29.98,SSW,193,0.0,-999.0,96,-99.99,,,-99.99,,2013-01-10 09:12:00,
2013-01-10 01:22:00,33.0,32.0,29.98,SSW,193,0.0,-999.0,96,-99.99,,,-99.99,,2013-01-10 09:22:00,
2013-01-10 01:32:00,33.0,32.0,29.99,SSW,193,0.0,-999.0,96,-99.99,,,-99.99,,2013-01-10 09:32:00,
2013-01-10 01:42:00,33.0,32.0,29.99,SSW,193,0.0,-999.0,96,-99.99,,,-99.99,,2013-01-10 09:42:00,
2013-01-10 01:52:00,34.0,33.0,29.99,SSW,211,0.0,-999.0,97,-99.99,,,-99.99,,2013-01-10 09:52:00,
2013-01-10 02:02:00,34.0,33.0,29.99,SSW,211,0.0,-999.0,97,-99.99,,,-99.99,,2013-01-10 10:02:00,
2013-01-10 02:11:00,34.0,33.0,29.99,SSW,211,0.0,-999.0,97,-99.99,,,-99.99,,2013-01-10 10:11:00,
2013-01-10 02:22:00,35.0,34.0,29.99,SSW,211,1.0,-999.0,97,-99.99,,,-99.99,,2013-01-10 10:22:00,
2013-01-10 02:32:00,35.0,34.0,29.99,West,261,0.0,-999.0,97,-99.99,,,-99.99,,2013-01-10 10:32:00,
2013-01-10 02:42:00,35.0,34.0,29.99,West,261,0.0,-999.0,97,-99.99,,,-99.99,,2013-01-10 10:42:00,
2013-01-10 02:52:00,34.0,33.0,30.00,West,261,0.0,-999.0,96,-99.99,,,-99.99,,2013-01-10 10:52:00,
2013-01-10 03:02:00,34.0,33.0,30.01,West,261,0.0,-999.0,96,-99.99,,,-99.99,,2013-01-10 11:02:00,
2013-01-10 03:12:00,34.0,33.0,30.01,West,261,0.0,-999.0,96,-99.99,,,-99.99,,2013-01-10 11:12:00,
2013-01-10 03:22:00,33.0,32.0,30.01,West,261,0.0,-999.0,96,-99.99,,,-99.99,,2013-01-10 11:22:00,
2013-01-10 03:32:00,33.0,32.0,30.01,West,261,0.0,-999.0,97,-99.99,,,-99.99,,2013-01-10 11:32:00,
2013-01-10 03:42:00,33.0,32.0,30.01,West,261,0.0,-999.0,97,-99.99,,,-99.99,,2013-01-10 11:42:00,
2013-01-10 03:52:00,34.0,33.0,30.00,West,261,0.0,-999.0,97,-99.99,,,-99.99,,2013-01-10 11:52:00,
2013-01-10 04:01:00,33.0,32.0,30.01,West,261,0.0,-999.0,96,-99.99,,,-99.99,,2013-01-10 12:01:00,
2013-01-10 04:02:00,34.0,33.0,30.00,West,261,0.0,-999.0,97,-99.99,,,-99.99,,2013-01-10 12:02:00,
2013-01-10 04:11:00,34.0,33.0,30.00,West,261,0.0,-999.0,97,-99.99,,,-99.99,,2013-01-10 12:11:00,
2013-01-10 04:22:00,33.0,32.0,30.01,West,261,0.0,-999.0,96,-99.99,,,-99.99,,2013-01-10 12:22:00,
2013-01-10 04:32:00,33.0,32.0,30.01,West,261,0.0,-999.0,96,-99.99,,,-99.99,,2013-01-10 12:32:00,
2013-01-10 04:42:00,33.0,32.0,30.01,West,261,0.0,-999.0,96,-99.99,,,-99.99,,2013-01-10 12:42:00,
2013-01-10 04:53:00,33.0,32.0,30.01,West,261,0.0,-999.0,96,-99.99,,,-99.99,,2013-01-10 12:53:00,
2013-01-10 10:33:00,38.0,37.0,30.04,SSW,205,3.0,-999.0,98,-99.99,,,-99.99,,2013-01-10 18:33:00,
2013-01-10 10:43:00,39.0,38.0,30.04,SSE,163,0.0,-999.0,97,-99.99,,,-99.99,,2013-01-10 18:43:00,
2013-01-10 10:53:00,39.0,38.0,30.04,SSE,163,0.0,-999.0,97,-99.99,,,-99.99,,2013-01-10 18:53:00,
2013-01-10 11:02:00,40.0,39.0,30.04,SSW,197,2.0,-999.0,98,-99.99,,,-99.99,,2013-01-10 19:02:00,
2013-01-10 11:12:00,42.0,40.0,30.04,WSW,254,1.0,-999.0,92,-99.99,,,-99.99,,2013-01-10 19:12:00,
2013-01-10 11:22:00,42.0,40.0,30.04,WSW,254,1.0,-999.0,92,-99.99,,,-99.99,,2013-01-10 19:22:00,
2013-01-10 11:32:00,43.0,40.0,30.04,NNW,334,2.0,-999.0,89,-99.99,,,-99.99,,2013-01-10 19:32:00,
2013-01-10 11:42:00,43.0,40.0,30.04,NNW,334,2.0,-999.0,89,-99.99,,,-99.99,,2013-01-10 19:42:00,
2013-01-10 11:53:00,43.0,40.0,30.03,West,261,1.0,-999.0,88,-99.99,,,-99.99,,2013-01-10 19:53:00,
2013-01-10 12:02:00,43.0,40.0,30.03,WNW,284,1.0,-999.0,88,-99.99,,,-99.99,,2013-01-10 20:02:00,
2013-01-10 12:12:00,43.0,39.0,30.03,NW,305,1.0,-999.0,85,-99.99,,,-99.99,,2013-01-10 20:12:00,
2013-01-10 12:22:00,43.0,39.0,30.03,NW,305,1.0,-999.0,85,-99.99,,,-99.99,,2013-01-10 20:22:00,
2013-01-10 12:32:00,43.0,39.0,30.03,NW,325,3.0,-999.0,85,-99.99,,,-99.99,,2013-01-10 20:32:00,
2013-01-10 12:42:00,43.0,39.0,30.03,NW,325,3.0,-999.0,85,-99.99,,,-99.99,,2013-01-10 20:42:00,
2013-01-10 12:53:00,43.0,39.0,30.03,WNW,296,2.0,-999.0,85,-99.99,,,-99.99,,2013-01-10 20:53:00,
2013-01-10 13:02:00,43.0,39.0,30.02,West,266,2.0,-999.0,86,-99.99,,,-99.99,,2013-01-10 21:02:00,
2013-01-10 13:12:00,44.0,39.0,30.02,WNW,287,3.0,-999.0,84,-99.99,,,-99.99,,2013-01-10 21:12:00,
2013-01-10 13:22:00,44.0,39.0,30.02,WNW,287,3.0,-999.0,84,-99.99,,,-99.99,,2013-01-10 21:22:00,
2013-01-10 13:32:00,44.0,39.0,30.02,West,260,3.0,-999.0,81,-99.99,,,-99.99,,2013-01-10 21:32:00,
2013-01-10 13:42:00,44.0,39.0,30.02,West,260,3.0,-999.0,81,-99.99,,,-99.99,,2013-01-10 21:42:00,
2013-01-10 13:53:00,43.0,38.0,30.03,NW,321,3.0,-999.0,81,-99.99,,,-99.99,,2013-01-10 21:53:00,
2013-01-10 14:02:00,43.0,38.0,30.03,WNW,298,2.0,-999.0,82,-99.99,,,-99.99,,2013-01-10 22:02:00,
2013-01-10 14:12:00,43.0,38.0,30.03,West,279,3.0,-999.0,83,-99.99,,,-99.99,,2013-01-10 22:12:00,
2013-01-10 14:22:00,43.0,38.0,30.03,West,279,3.0,-999.0,83,-99.99,,,-99.99,,2013-01-10 22:22:00,
2013-01-10 14:32:00,43.0,38.0,30.03,West,279,3.0,-999.0,83,-99.99,,,-99.99,,2013-01-10 22:32:00,
2013-01-10 14:42:00,43.0,38.0,30.03,West,279,3.0,-999.0,83,-99.99,,,-99.99,,2013-01-10 22:42:00,
2013-01-10 15:53:00,41.0,38.0,30.06,NNW,337,0.0,-999.0,88,-99.99,,,-99.99,,2013-01-10 23:53:00,
2013-01-10 16:02:00,41.0,38.0,30.06,NNW,337,0.0,-999.0,89,-99.99,,,-99.99,,2013-01-11 00:02:00,
2013-01-10 16:12:00,40.0,38.0,30.07,WNW,282,0.0,-999.0,92,-99.99,,,-99.99,,2013-01-11 00:12:00,
2013-01-10 16:22:00,40.0,38.0,30.07,WNW,282,0.0,-999.0,92,-99.99,,,-99.99,,2013-01-11 00:22:00,
2013-01-10 16:32:00,40.0,38.0,30.07,WNW,288,0.0,-999.0,92,-99.99,,,-99.99,,2013-01-11 00:32:00,
2013-01-10 16:42:00,40.0,38.0,30.07,WNW,288,0.0,-999.0,92,-99.99,,,-99.99,,2013-01-11 00:42:00,
2013-01-10 16:52:00,40.0,38.0,30.07,WNW,284,1.0,-999.0,94,-99.99,,,-99.99,,2013-01-11 00:52:00,
2013-01-10 17:02:00,40.0,38.0,30.07,West,264,1.0,-999.0,93,-99.99,,,-99.99,,2013-01-11 01:02:00,
2013-01-10 17:12:00,40.0,38.0,30.07,West,275,2.0,-999.0,92,-99.99,,,-99.99,,2013-01-11 01:12:00,
2013-01-10 17:22:00,40.0,38.0,30.07,West,275,2.0,-999.0,92,-99.99,,,-99.99,,2013-01-11 01:22:00,
2013-01-10 17:32:00,40.0,38.0,30.08,WNW,294,2.0,-999.0,91,-99.99,,,-99.99,,2013-01-11 01:32:00,
2013-01-10 17:42:00,40.0,38.0,30.08,WNW,294,2.0,-999.0,91,-99.99,,,-99.99,,2013-01-11 01:42:00,
2013-01-10 17:53:00,39.0,37.0,30.08,West,267,0.0,-999.0,91,-99.99,,,-99.99,,2013-01-11 01:53:00,
2013-01-10 18:02:00,39.0,37.0,30.08,WNW,296,1.0,-999.0,91,-99.99,,,-99.99,,2013-01-11 02:02:00,
2013-01-10 18:12:00,39.0,37.0,30.08,WNW,296,1.0,-999.0,91,-99.99,,,-99.99,,2013-01-11 02:12:00,
2013-01-10 18:22:00,39.0,37.0,30.09,West,269,1.0,-999.0,92,-99.99,,,-99.99,,2013-01-11 02:22:00,
2013-01-10 18:32:00,39.0,37.0,30.09,NNW,334,1.0,-999.0,92,-99.99,,,-99.99,,2013-01-11 02:32:00,
2013-01-10 18:42:00,39.0,37.0,30.09,NNW,334,1.0,-999.0,92,-99.99,,,-99.99,,2013-01-11 02:42:00,
2013-01-10 18:53:00,39.0,37.0,30.09,WNW,298,1.0,-999.0,92,-99.99,,,-99.99,,2013-01-11 02:53:00,
2013-01-10 19:02:00,39.0,37.0,30.08,West,275,0.0,-999.0,91,-99.99,,,-99.99,,2013-01-11 03:02:00,
2013-01-10 19:11:00,38.0,35.0,30.09,WNW,298,1.0,-999.0,90,-99.99,,,-99.99,,2013-01-11 03:11:00,
2013-01-10 19:22:00,38.0,35.0,30.09,WNW,298,1.0,-999.0,90,-99.99,,,-99.99,,2013-01-11 03:22:00,
2013-01-10 19:32:00,38.0,35.0,30.09,West,270,2.0,-999.0,90,-99.99,,,-99.99,,2013-01-11 03:32:00,
2013-01-10 19:42:00,38.0,35.0,30.09,West,270,2.0,-999.0,90,-99.99,,,-99.99,,2013-01-11 03:42:00,
2013-01-10 19:53:00,37.0,34.0,30.09,West,271,1.0,-999.0,90,-99.99,,,-99.99,,2013-01-11 03:53:00,
2013-01-10 20:01:00,37.0,34.0,30.09,WNW,294,0.0,-999.0,90,-99.99,,,-99.99,,2013-01-11 04:01:00,
2013-01-10 20:11:00,37.0,34.0,30.09,WNW,294,0.0,-999.0,90,-99.99,,,-99.99,,2013-01-11 04:11:00,
2013-01-10 20:22:00,37.0,34.0,30.10,West,264,1.0,-999.0,90,-99.99,,,-99.99,,2013-01-11 04:22:00,
2013-01-10 20:32:00,37.0,34.0,30.09,West,269,1.0,-999.0,90,-99.99,,,-99.99,,2013-01-11 04:32:00,
2013-01-10 20:42:00,37.0,34.0,30.09,West,269,1.0,-999.0,90,-99.99,,,-99.99,,2013-01-11 04:42:00,
2013-01-10 20:52:00,37.0,34.0,30.10,West,261,3.0,-999.0,90,-99.99,,,-99.99,,2013-01-11 04:52:00,
2013-01-10 21:03:00,37.0,35.0,30.10,West,262,1.0,-999.0,91,-99.99,,,-99.99,,2013-01-11 05:03:00,
2013-01-10 21:12:00,37.0,35.0,30.10,West,262,1.0,-999.0,91,-99.99,,,-99.99,,2013-01-11 05:12:00,
2013-01-10 21:22:00,37.0,35.0,30.10,West,265,0.0,-999.0,91,-99.99,,,-99.99,,2013-01-11 05:22:00,
2013-01-10 21:32:00,36.0,34.0,30.10,West,265,0.0,-999.0,91,-99.99,,,-99.99,,2013-01-11 05:32:00,
2013-01-10 21:42:00,36.0,34.0,30.10,West,265,0.0,-999.0,91,-99.99,,,-99.99,,2013-01-11 05:42:00,
2013-01-10 21:52:00,35.0,33.0,30.10,SW,221,0.0,-999.0,92,-99.99,,,-99.99,,2013-01-11 05:52:00,
2013-01-10 22:02:00,35.0,33.0,30.09,WNW,286,0.0,-999.0,93,-99.99,,,-99.99,,2013-01-11 06:02:00,
2013-01-10 22:11:00,35.0,33.0,30.09,WNW,286,0.0,-999.0,93,-99.99,,,-99.99,,2013-01-11 06:11:00,
2013-01-10 22:22:00,35.0,33.0,30.10,SW,224,1.0,-999.0,94,-99.99,,,-99.99,,2013-01-11 06:22:00,
2013-01-10 22:32:00,35.0,33.0,30.09,SW,215,1.0,-999.0,94,-99.99,,,-99.99,,2013-01-11 06:32:00,
2013-01-10 22:42:00,35.0,33.0,30.09,SW,215,1.0,-999.0,94,-99.99,,,-99.99,,2013-01-11 06:42:00,
2013-01-10 22:52:00,35.0,33.0,30.10,WSW,249,2.0,-999.0,94,-99.99,,,-99.99,,2013-01-11 06:52:00,
2013-01-10 23:02:00,35.0,33.0,30.10,West,260,2.0,-999.0,94,-99.99,,,-99.99,,2013-01-11 07:02:00,
2013-01-10 23:11:00,35.0,33.0,30.10,WNW,291,0.0,-999.0,94,-99.99,,,-99.99,,2013-01-11 07:11:00,
2013-01-10 23:22:00,35.0,33.0,30.10,WNW,291,0.0,-999.0,94,-99.99,,,-99.99,,2013-01-11 07:22:00,
2013-01-10 23:32:00,35.0,33.0,30.10,West,279,1.0,-999.0,94,-99.99,,,-99.99,,2013-01-11 07:32:00,
2013-01-10 23:42:00,35.0,33.0,30.10,West,279,1.0,-999.0,94,-99.99,,,-99.99,,2013-01-11 07:42:00,
2013-01-10 23:52:00,35.0,33.0,30.10,West,279,1.0,-999.0,94,-99.99,,,-99.99,,2013-01-11 07:52:00,